Location: Cluj-Napoca
(46.7712°N, 23.6236°E)
Time: 04:05:43
(UTC+03:00)

ISS - Pass Details

Date: 10 July 2020
Orbit: 417 x 421 km, 51.6° (Epoch: 08 July)

Event Time Altitude Azimuth Distance (km) Brightness Sun altitude
Exits shadow 01:19:06 27° 78° (ENE) 835 -2.2 -21.0°
Drops below altitude 10° 01:20:49 10° 69° (ENE) 1,498 -0.7 -21.0°
Sets 01:22:56 0° 65° (ENE) 2,364 0.4 -21.0°
